sat.trackr.live / text

‹ back to catalog

STARLINK-36248

NORAD 68979 · 2026-099AE

PAYLOAD ACTIVE UNKNOWN

§ Identity

Operator
Country
US
Launch date
2026-05-01
Launch site
AFETR
Launch vehicle
Mass (kg)
RCS (m²)

Purposes: comms

External: N2YO · Heavens-Above · Gunter

§ Orbital elements

Epoch: 2026-09-19T21:01:54.492096Z

Period
93.85 min
Inclination
53.1587°
Eccentricity
0.0001523
Mean motion
15.34395701 rev/d
Perigee alt
461.7 km
Apogee alt
463.8 km
Semi-major
6,840.9 km
B*
4.3109e-4
RAAN
78.3447°
Arg perigee
99.1565°
Mean anomaly
260.9610°
Rev number
2,181

§ Raw data

STARLINK-362481 68979U 26099AE  26262.87632514  .00014214  00000+0  43109-3 0  99902 68979  53.1587  78.3447 0001523  99.1565 260.9610 15.34395701 21813

JSON: /api/v1/satellites/68979 · /tle

For live sub-satellite position, see the globe view (requires WebGL).

§ Visibility from observer

Set your observer location to see the next 7 days of passes ≥ 10°. The values pass through the URL so the page stays shareable.

No JS? Fill the form by hand. The geolocation button needs JavaScript.